DW5656 Weather Reports


time (UTC)temp
F
wind
direction
speed
knots
gust
knots
rain 1hr
in
rain 24hr
in
rain mn
in
humidity
%
barometer
mb
20260904095722 84 202 0.9 4.3 0.00 0.00 0.00 72 1020.6
20260904094822 83 271 0.9 2.6 0.00 0.00 0.00 74 1020.6
20260904093943 82 220 0.9 2.6 0.00 0.00 0.00 76 1020.6
20260904093021 82 199 1.7 5.2 0.00 0.00 0.00 76 1020.6
20260904092143 81 152 0.9 4.3 0.00 0.00 0.00 76 1020.6
20260904091221 81 179 0.9 3.5 0.00 0.00 0.00 77 1020.5
20260904090321 80 160 1.7 3.5 0.00 0.00 0.00 78 1020.6
20260904085421 80 149 1.7 5.2 0.00 0.00 0.00 80 1020.5
20260904084521 79 199 1.7 5.2 0.00 0.00 0.00 81 1020.4
20260904083642 79 234 1.7 5.2 0.00 0.00 0.00 82 1020.7
20260904082721 78 215 2.6 5.2 0.00 0.00 0.00 82 1020.5
20260904081821 78 216 1.7 5.2 0.00 0.00 0.00 82 1020.5
20260904080921 78 214 2.6 5.2 0.00 0.00 0.00 83 1020.2
20260904080021 78 222 2.6 4.3 0.00 0.00 0.00 83 1020.2
20260904075121 78 187 1.7 4.3 0.00 0.00 0.00 82 1020.0
20260904074221 78 224 1.7 4.3 0.00 0.00 0.00 83 1020.1
20260904073321 78 231 1.7 6.1 0.00 0.00 0.00 83 1020.1
20260904072421 77 217 1.7 6.1 0.00 0.00 0.00 83 1020.0
20260904071542 77 230 1.7 4.3 0.00 0.00 0.00 83 1020.0
20260904070642 77 225 1.7 5.2 0.00 0.00 0.00 83 1020.1
20260904065721 77 237 1.7 4.3 0.00 0.00 0.00 83 1020.0
20260904064821 77 259 1.7 4.3 0.00 0.00 0.00 83 1020.0
20260904063921 77 278 1.7 3.5 0.00 0.00 0.00 83 1019.9
20260904063042 76 250 1.7 4.3 0.00 0.00 0.00 83 1019.9
20260904062121 76 249 2.6 6.1 0.00 0.00 0.00 83 1020.0
20260904061221 76 242 1.7 4.3 0.00 0.00 0.00 83 1019.8
20260904060342 76 241 2.6 3.5 0.00 0.00 0.00 83 1019.7
20260904055421 76 248 2.6 7.8 0.00 0.00 0.00 82 1019.7
20260904054521 76 244 2.6 7.8 0.00 0.00 0.00 82 1019.6
20260904053621 77 231 2.6 7.0 0.00 0.00 0.00 80 1019.7
20260904052721 77 239 2.6 7.8 0.00 0.00 0.00 79 1019.6
20260904051821 78 225 1.7 5.2 0.00 0.00 0.00 77 1019.4
20260904050921 78 258 1.7 4.3 0.00 0.00 0.00 76 1019.3
20260904050021 78 255 1.7 4.3 0.00 0.00 0.00 75 1019.2
20260904045121 79 246 3.5 6.1 0.00 0.00 0.00 74 1019.2
20260904044221 79 238 4.3 8.7 0.00 0.00 0.00 73 1019.4
20260904043321 79 244 3.5 7.8 0.00 0.00 0.00 71 1019.4
20260904042421 80 256 3.5 8.7 0.00 0.00 0.00 70 1019.5
20260904041521 80 269 5.2 10.4 0.00 0.00 0.00 70 1019.3
20260904040621 80 273 4.3 11.3 0.00 0.00 0.00 69 1019.4
20260904035721 80 275 2.6 7.8 0.00 0.00 0.00 68 1019.3
20260904034820 80 271 2.6 7.8 0.00 0.00 0.00 69 1019.3
20260904033920 80 257 2.6 5.2 0.00 0.00 0.00 71 1019.2
20260904033021 79 243 2.6 6.1 0.00 0.00 0.00 72 1019.2
20260904032121 79 226 1.7 6.1 0.00 0.00 0.00 74 1019.2
20260904031221 79 228 2.6 4.3 0.00 0.00 0.00 74 1019.2
20260904030320 78 229 4.3 7.0 0.00 0.00 0.00 75 1019.2
20260904025420 78 235 4.3 9.6 0.00 0.00 0.00 75 1019.3
20260904024520 79 235 4.3 9.6 0.00 0.00 0.00 74 1019.1
20260904023641 80 227 2.6 9.6 0.00 0.00 0.00 72 1018.9
20260904022720 81 219 1.7 6.1 0.00 0.00 0.00 70 1018.8
20260904021820 81 224 2.6 6.1 0.00 0.00 0.00 68 1018.8
20260904020920 82 225 2.6 7.0 0.00 0.00 0.00 67 1018.7
20260904020020 83 226 2.6 5.2 0.00 0.00 0.00 66 1018.6
20260904015141 84 206 1.7 6.1 0.00 0.00 0.00 64 1018.6
20260904014220 84 218 2.6 4.3 0.00 0.00 0.00 64 1018.7
20260904013341 85 231 1.7 4.3 0.00 0.00 0.00 63 1018.6
20260904012441 85 231 1.7 3.5 0.00 0.00 0.00 62 1018.7
20260904011520 86 231 0.9 2.6 0.00 0.00 0.00 61 1018.8
20260904010620 86 231 0.9 2.6 0.00 0.00 0.00 61 1018.7
20260904005720 86 231 0.9 2.6 0.00 0.00 0.00 60 1018.7
20260904004820 87 231 1.7 2.6 0.00 0.00 0.00 59 1018.7
20260904003920 87 239 1.7 3.5 0.00 0.00 0.00 59 1018.7
20260904003020 88 263 0.9 2.6 0.00 0.00 0.00 58 1018.7
20260904002120 88 263 1.7 1.7 0.00 0.00 0.00 58 1018.6
20260904001241 88 263 1.7 3.5 0.00 0.00 0.00 57 1018.7
20260904000320 88 263 0.9 2.6 0.00 0.00 0.00 57 1018.6
20260903235441 88 263 0.9 1.7 0.00 0.00 0.00 56 1018.6
20260903234541 89 263 0.9 2.6 0.00 0.00 0.00 56 1018.6
20260903233620 89 263 1.7 2.6 0.00 0.00 0.00 56 1018.7
20260903232720 89 263 1.7 3.5 0.00 0.00 0.00 55 1018.7
20260903231820 89 263 1.7 2.6 0.00 0.00 0.00 55 1018.6
20260903230920 89 265 1.7 3.5 0.00 0.00 0.00 55 1018.6
20260903230020 90 283 2.6 3.5 0.00 0.00 0.00 55 1018.5
20260903225120 90 275 1.7 5.2 0.00 0.00 0.00 55 1018.6
20260903224241 90 280 1.7 3.5 0.00 0.00 0.00 55 1018.6
20260903223320 90 307 1.7 4.3 0.00 0.00 0.00 55 1018.6
20260903222420 90 310 1.7 4.3 0.00 0.00 0.00 55 1018.6
20260903221520 90 311 1.7 7.0 0.00 0.00 0.00 55 1018.6
20260903220620 90 312 1.7 7.0 0.00 0.00 0.00 55 1018.6
20260903215720 90 299 2.6 7.0 0.00 0.00 0.00 55 1018.6
20260903214820 91 305 2.6 7.8 0.00 0.00 0.00 54 1018.6
20260903213920 91 294 2.6 7.0 0.00 0.00 0.00 53 1018.6
20260903213019 92 272 2.6 6.1 0.00 0.00 0.00 53 1018.5
20260903212141 92 271 3.5 6.1 0.00 0.00 0.00 53 1018.5
20260903211220 92 250 3.5 6.1 0.00 0.00 0.00 52 1018.5
20260903210320 92 240 2.6 7.8 0.00 0.00 0.00 52 1018.4
20260903205419 93 232 3.5 7.0 0.00 0.00 0.00 51 1018.2
20260903204520 94 242 3.5 7.0 0.00 0.00 0.00 49 1018.1
20260903203619 95 262 3.5 7.8 0.00 0.00 0.00 48 1017.8
20260903202719 95 265 3.5 9.6 0.00 0.00 0.00 48 1017.6
20260903201819 95 260 3.5 7.8 0.00 0.00 0.00 48 1017.5
20260903200940 95 249 3.5 7.8 0.00 0.00 0.00 48 1017.4
20260903200019 96 226 3.5 8.7 0.00 0.00 0.00 48 1017.2
20260903195119 97 235 3.5 7.8 0.00 0.00 0.00 47 1017.1
20260903194219 98 239 4.3 7.8 0.00 0.00 0.00 45 1016.9
20260903193340 98 242 3.5 11.3 0.00 0.00 0.00 43 1016.9
20260903192419 100 248 2.6 6.1 0.00 0.00 0.00 40 1016.7
20260903191519 101 257 2.6 6.1 0.00 0.00 0.00 36 1016.5
20260903190619 102 254 3.5 6.1 0.00 0.00 0.00 33 1016.5
20260903185740 103 237 2.6 7.0 0.00 0.00 0.00 29 1016.4
20260903184819 106 278 0.9 7.0 0.00 0.00 0.00 25 1016.3
20260903183920 107 303 0.9 1.7 0.00 0.00 0.00 24 1016.2
20260903183019 108 303 0.9 1.7 0.00 0.00 0.00 23 1016.2
20260903182119 108 303 0.9 2.6 0.00 0.00 0.00 23 1016.2
20260903181219 109 303 0.9 1.7 0.00 0.00 0.00 22 1016.2
20260903180319 109 303 0.9 2.6 0.00 0.00 0.00 21 1016.2
20260903175419 110 301 0.9 2.6 0.00 0.00 0.00 22 1016.2
20260903174519 110 301 1.7 2.6 0.00 0.00 0.00 22 1016.2
20260903173619 109 317 1.7 3.5 0.00 0.00 0.00 21 1016.2
20260903172719 109 334 1.7 3.5 0.00 0.00 0.00 22 1016.3
20260903171819 109 329 3.5 5.2 0.00 0.00 0.00 21 1016.3
20260903170919 109 352 2.6 6.1 0.00 0.00 0.00 21 1016.2
20260903170040 110 340 2.6 5.2 0.00 0.00 0.00 21 1016.3
20260903165119 110 329 1.7 5.2 0.00 0.00 0.00 22 1016.3
20260903164219 110 346 2.6 6.1 0.00 0.00 0.00 21 1016.3
20260903163319 109 326 3.5 7.0 0.00 0.00 0.00 20 1016.3
20260903162419 109 325 3.5 7.0 0.00 0.00 0.00 20 1016.4
20260903161518 109 336 2.6 7.0 0.00 0.00 0.00 21 1016.3
20260903160618 109 349 2.6 5.2 0.00 0.00 0.00 21 1016.3
20260903155718 109 352 3.5 7.0 0.00 0.00 0.00 21 1016.4
20260903154840 109 17 2.6 7.8 0.00 0.00 0.00 21 1016.5
20260903153919 109 350 3.5 7.0 0.00 0.00 0.00 23 1016.5
20260903153018 108 339 2.6 7.0 0.00 0.00 0.00 23 1016.5
20260903152119 109 331 2.6 6.1 0.00 0.00 0.00 23 1016.6
20260903151218 108 326 2.6 7.8 0.00 0.00 0.00 24 1016.6
20260903150318 108 308 3.5 6.1 0.00 0.00 0.00 27 1016.7
20260903145418 107 338 3.5 7.0 0.00 0.00 0.00 27 1016.8
20260903144518 108 32 3.5 7.0 0.00 0.00 0.00 28 1016.9
20260903143618 107 338 3.5 7.8 0.00 0.00 0.00 28 1017.1
20260903142718 107 351 2.6 8.7 0.00 0.00 0.00 27 1017.1
20260903141818 107 3 2.6 5.2 0.00 0.00 0.00 27 1017.2
20260903140918 107 286 2.6 5.2 0.00 0.00 0.00 29 1017.3
20260903140018 107 289 1.7 5.2 0.00 0.00 0.00 29 1017.3
20260903135139 107 5 1.7 4.3 0.00 0.00 0.00 29 1017.4
20260903134218 106 351 1.7 4.3 0.00 0.00 0.00 29 1017.5
20260903133318 106 26 2.6 4.3 0.00 0.00 0.00 30 1017.5
20260903132419 105 6 2.6 8.7 0.00 0.00 0.00 30 1017.5
20260903131518 106 39 1.7 7.0 0.00 0.00 0.00 30 1017.5
20260903130639 105 305 2.6 4.3 0.00 0.00 0.00 31 1017.6
20260903125718 104 15 1.7 7.8 0.00 0.00 0.00 30 1017.7
20260903124818 104 160 1.7 4.3 0.00 0.00 0.00 34 1017.7
20260903123918 103 59 1.7 6.1 0.00 0.00 0.00 34 1017.8
20260903123039 102 75 2.6 7.0 0.00 0.00 0.00 34 1017.8
20260903122118 101 32 2.6 7.0 0.00 0.00 0.00 36 1017.9
20260903121218 101 18 1.7 4.3 0.00 0.00 0.00 36 1018.2
20260903120318 101 58 2.6 7.0 0.00 0.00 0.00 36 1018.3
20260903115418 100 36 2.6 7.8 0.00 0.00 0.00 37 1018.4
20260903114518 100 64 2.6 7.0 0.00 0.00 0.00 37 1018.5
20260903113618 99 88 4.3 8.7 0.00 0.00 0.00 37 1018.7
20260903112718 98 59 3.5 8.7 0.00 0.00 0.00 39 1018.7
20260903111818 97 30 3.5 8.7 0.00 0.00 0.00 41 1018.8
20260903110919 96 20 3.5 7.0 0.00 0.00 0.00 43 1018.9
20260903110018 96 77 3.5 7.0 0.00 0.00 0.00 41 1019.0
20260903105118 95 53 3.5 6.1 0.00 0.00 0.00 44 1018.9
20260903104217 94 43 3.5 7.8 0.00 0.00 0.00 45 1019.0
20260903103318 93 38 3.5 7.8 0.00 0.00 0.00 47 1019.2
20260903102439 93 21 3.5 8.7 0.00 0.00 0.00 47 1019.2
20260903101518 92 14 3.5 7.8 0.00 0.00 0.00 48 1019.3
20260903100617 90 21 3.5 8.7 0.00 0.00 0.00 50 1019.2